CZ-3C DEB, 40178

Orbit data source: Space-Track

CZ-3C DEB, 40178 is space debris in HEO originally from a launch on Sun, 31 Oct 2010 UTC launched from the Xichang Space Center, China (XSC). Debris objects in space refer to the collection of defunct objects orbiting the Earth. Examples of debris include non-operational satellites, rocket bodies, and fragments generated from explosions, collisions, or faulty payload assembly.

Loading next visibility...
CZ-3C DEB details
Identifier
40178, 2010-057AG
Orbit
HEO
Last TLE update4 days ago
Origin
Flag of CNCASC (CN / PRC)
ManufacturerCALT
MissionSpacecraft
Bus & MotorUnknown
MassUnknown
Launch date (UTC)
2010-10-31 (14 years ago)
Launch vehicleUnknown
Launch site
Xichang Space Center, China (XSC)
Object type
Payload
Rocket body
Debris
Shape & HBRUnknown
Radar Cross SectionMedium (>0.1 m² and <1 m²)

Expand to show TLE details & history

TLE from 4 days ago
0 CZ-3C DEB
1 40178U 10057AG  24357.47918663  .00000326  00000-0  16642-1 0  9999
2 40178  18.9419  97.9921 7206428 265.9880  36.5633  2.09732656 20804
Epoch: 2024-12-22T11:30Z
Definitive object data (Epoch: 2024-12-22T11:30:01.724Z)
Latitude9.92856°
Longitude-135.54528°
Altitude15,136.824 km
Speed4.647 km/s
True Right ascension08h 33m 54s
True Declination9° 54' 33"
Sunlit
Object was in daylight at TLE epoch
Visualization TLE readout
Latitude1.49616°
Longitude8.12591°
Altitude6,569.398 km
Speed6.79 km/s
Apparent Right ascension19h 10m 48s
Apparent Declination-22° 30' 18"
Sunlit
Object is in daylight
Visualization observer readout
Local Sidereal Time16:10:20
Azimuth137.401° SSE
Elevation14.739°
Doppler factor1
Orbital elements
Apogee altitude37,988.329 km
Perigee altitude825.038 km
Semi-major axis25,784.82 km
Eccentricity0.7206428
Inclination18.9419°
RAAN97.9921°
Arg. of periapsis265.988°
True anomaly126.06693°
Mean anomaly36.5633°
Eccentric anomaly76.7547°
Mean motion0.5242 °/min
BSTAR0.016642
Orbital period686.76 mins
Loading maneuver chart data...
Loading historical data...
Loading historical data...
Loading historical data...
Loading historical data...
Loading historical data...
Loading historical data...
Loading historical data...

CZ-3C DEB Visibility forecast

Observer location: undefined°, undefined

Span
Click to sort rows by Start time (UTC) header in descending order
Start Az.
Max El. time (UTC)
Max El. Az.
Max El.
End time (UTC)
End Az.
625 mins2024-12-27 05:12:07.046Z150.24° SSE2024-12-27 13:15:07.046Z137.646° SSE39.839°2024-12-27 15:37:07.046Z123.638° SE
|